This is the latest recevied weather packets stored in our database for station/object KB9ZGZ. If no packets are shown the sender has not sent any weather packets the latest 10 day(s).
| Time | Temp. | Humidity | Pressure | Rain* | Wind** | Luminosity | Snow |
|---|---|---|---|---|---|---|---|
| 1777757435 | 13.89° C | 44% | 1014.2 hPa | 0 mm | - | - | - |
| 1777756537 | 13.89° C | 48% | 1014.2 hPa | 0 mm | - | - | - |
| 1777755636 | 13.89° C | 45% | 1014.4 hPa | 0 mm | - | - | - |
| 1777754731 | 14.44° C | 43% | 1014.5 hPa | 0 mm | - | - | - |
| 1777753830 | 14.44° C | 49% | 1014.6 hPa | 0 mm | - | - | - |
| 1777752929 | 14.44° C | 45% | 1014.7 hPa | 0 mm | - | - | - |
| 1777752028 | 15° C | 48% | 1014.7 hPa | 0 mm | - | - | - |
| 1777751156 | 14.44° C | 46% | 1014.8 hPa | 0 mm | - | - | - |
| 1777750255 | 14.44° C | 45% | 1014.9 hPa | 0 mm | - | - | - |
| 1777749351 | 13.89° C | 48% | 1014.9 hPa | 0 mm | - | - | - |
| 1777748447 | 13.33° C | 51% | 1015 hPa | 0 mm | - | - | - |
| 1777747554 | 13.33° C | 47% | 1015.1 hPa | 0 mm | - | - | - |
| 1777746645 | 13.33° C | 51% | 1015.1 hPa | 0 mm | - | - | - |
| 1777745741 | 12.78° C | 51% | 1015.1 hPa | 0 mm | - | - | - |
| 1777744843 | 12.78° C | 55% | 1015.2 hPa | 0 mm | - | - | - |
| 1777743935 | 12.78° C | 52% | 1015.4 hPa | 0 mm | - | - | - |
| 1777743036 | 12.78° C | 55% | 1015.5 hPa | 0 mm | - | - | - |
| 1777742136 | 12.78° C | 52% | 1015.5 hPa | 0 mm | - | - | - |
| 1777741228 | 12.78° C | 59% | 1015.6 hPa | 0 mm | - | - | - |
| 1777740327 | 12.22° C | 62% | 1015.7 hPa | 0.25 mm | - | - | - |
| 1777739428 | 12.22° C | 60% | 1015.7 hPa | 0.25 mm | - | - | - |
| 1777738525 | 11.67° C | 62% | 1015.8 hPa | 0.25 mm | - | - | - |
| 1777737629 | 11.67° C | 62% | 1015.8 hPa | 0.25 mm | - | - | - |
| 1777736723 | 11.11° C | 64% | 1015.8 hPa | 0.25 mm | - | - | - |
| 1777735825 | 11.11° C | 64% | 1015.7 hPa | 0.25 mm | - | - | - |
* Rain since midnight (hover to see other rain measurements)
** Current wind speed in m/s (hover to see current wind gust speed)